User: anonymous   Login
Location: Unspecified
(0.0000°N, 0.0000°E)
Time: 18:43:30
(UTC+00:00)
Language:

GRIFEX - Orbit

View from above orbital plane
View from above orbital plane
View from above satellite
View from above satellite

Ground track
Ground track

The orbit data is extracted from the following two-line orbital elements,

1 40379U 15003D   18351.40551072  .00001765  00000-0  79742-4 0  9996
2 40379  99.0904 284.7647 0137016 356.7191   3.3124 15.14885864213834
Epoch (UTC): 17 December 2018 09:43:56
Eccentricity: 0.0137016
inclination: 99.0904°
perigee height: 427 km
apogee height: 616 km
right ascension of ascending node: 284.7647°
argument of perigee: 356.7191°
revolutions per day: 15.14885864
mean anomaly at epoch: 3.3124°
orbit number at epoch: 21383

The dashed part of the orbit path shows where the satellite is in the earth's shadow,  

DLR